Skip Page Navigation
NASA JPL Caltech
NASA Logo - Jet Propulsion Laboratory + View the NASA Portal
+ Center for Near-Earth Object Studies
JPL Home Earth Solar System Stars & Galaxies Technology
JPL Solar System Dynamics
BODIES ORBITS EPHEMERIDES TOOLS PHYSICAL DATA DISCOVERY FAQ SITE MAP
JPL Small-Body Database Browser
Search: [ help ]  
105345 (2000 QG95)
Classification: Main-belt Asteroid          SPK-ID: 2105345
Ephemeris | Orbit Diagram | Orbital Elements | Mission Design | Physical Parameters | Discovery Circumstances ]

[ show orbit diagram ]
Orbital Elements at Epoch 2459396.5 (2021-Jul-01.0) TDB
Reference: JPL 17 (heliocentric ecliptic J2000)
 Element Value Uncertainty (1-sigma)   Units 
e .1278434858621759 4.6682e-08  
a 2.125468902257222 8.3839e-09 au
q 1.853741548701007 9.6803e-08 au
i 2.12461985004868 6.2288e-06 deg
node 269.3534357023419 0.0001483 deg
peri 143.1111973589773 0.000151 deg
M 207.3709882609478 2.9698e-05 deg
tp 2459876.360664512823
(2022-Oct-23.86066451)
9.4111e-05 TDB
period 1131.828328417433
3.10
6.6967e-06
1.833e-08
d
yr
n .3180694377064817 1.8819e-09 deg/d
Q 2.397196255813438 9.4557e-09 au
  Orbit Determination Parameters
   # obs. used (total)      516  
   data-arc span      8653 days (23.69 yr)  
   first obs. used      1997-10-04  
   last obs. used      2021-06-13  
   planetary ephem.      DE441  
   SB-pert. ephem.      SB441-N16  
   condition code      0  
   norm. resid. RMS      .58419  
   source      ORB  
   producer      Otto Matic  
   solution date      2021-Jul-08 09:03:31  

Additional Information
 Earth MOID = .864769 au 
 Jupiter MOID = 2.91291 au 
 T_jup = 3.715 
[ show covariance matrix ]

Ephemeris | Orbit Diagram | Orbital Elements | Mission Design | Physical Parameters | Discovery Circumstances ]

Physical Parameter Table
Parameter Symbol Value Units Sigma Reference Notes
absolute magnitude H 16.75   n/a MPO614063  

105345 (2000 QG95)          Discovered 2000-Aug-26 by LINEAR at Socorro
Reference: 20051019/Numbers.arcLast Updated: 2005-10-26
Ephemeris | Orbit Diagram | Orbital Elements | Mission Design | Physical Parameters | Discovery Circumstances ]
ABOUT SSD CREDITS/AWARDS PRIVACY/COPYRIGHT GLOSSARY LINKS
FirstGov 2021-Jul-26 05:55 UT
(server date/time)  
NASA Home Page
Site Manager:   Ryan S. Park
Webmaster  Alan B. Chamberlin